Home > Time Zones > World Clock > Weather > Iran > Gorgan > Past weeks

Flag Weather past 2 weeks in Gorgan, Iran

Now
54 °F

Clear.


Feels Like: 53 °F
Forecast: 49 / 69 °F
Wind: 5 mph from Southwest

Location: Gorgan Airport

Current Time: Oct 30, 2014 at 9:21:16 PM

Latest Report: Oct 30, 2014 at 8:30 PM


Visibility: 10 mi

Pressure: 30.21 "Hg

Humidity: 77%

Dew point: 46 °F

Location of GorganLocation

Historic Weather in Gorgan — Graph

°F

Gorgan temperature yesterday

Maximum temperature yesterday: 68 °F (at 12:30 PM)
Minimum temperature yesterday: 48 °F (at 3:30 AM)
Average temperature yesterday: 57 °F

Past Weeks' High & Low Weather Summary

 TemperatureHumidityPressure
High90 °F (Oct 23, 2:30 PM)100% (Oct 20, 6:30 AM)30.54 "Hg (Oct 20, 6:30 AM)
Low43 °F (Oct 30, 6:30 AM)16% (Oct 23, 2:30 PM)29.65 "Hg (Oct 19, 3:30 AM)
Average62 °F72%30.09 "Hg
* Reported Oct 15 7:30 PM — Oct 30 7:30 PM, Gorgan, Weather by CustomWeather, © 2014

Note: Actual official high and low records may vary slightly from our data, if they occured in-between our weather recording intervals... More about our weather records

Advertising

Gorgan weather history for previous 24 hours

 ConditionsComfort  
Time TempWeatherWind HumidityBarometerVisibility
7:30 PM
Oct 30
55 °FClear.9 mph72%30.21 "Hg10 mi
6:30 PM59 °FClear.9 mph68%30.24 "Hg10 mi
5:30 PM61 °FClear.No wind52%30.21 "Hg10 mi
4:30 PM68 °FSunny.No wind40%30.21 "Hg10 mi
3:30 PM70 °FSunny.5 mph35%30.21 "Hg10 mi
2:30 PM70 °FSunny.5 mph33%30.21 "Hg10 mi
1:30 PM70 °FPassing clouds.5 mph35%30.24 "HgN/A
12:30 PM70 °FSunny.No wind35%30.27 "Hg10 mi
12:00 PM68 °FSunny.No wind38%30.27 "Hg10 mi
11:30 AM68 °FSunny.No wind38%30.27 "Hg10 mi
11:00 AM66 °FSunny.7 mph40%30.30 "Hg10 mi
10:30 AM66 °FSunny.7 mph40%30.30 "Hg10 mi
9:30 AM61 °FSunny.No wind68%30.33 "Hg10 mi
8:30 AM57 °FSunny.No wind72%30.33 "Hg10 mi
7:30 AM48 °FSunny.No wind94%30.33 "Hg10 mi
6:30 AM43 °FClear.No wind100%30.33 "Hg10 mi
5:30 AM45 °FClear.No wind87%30.30 "Hg10 mi
4:30 AM45 °FClear.No wind93%30.30 "Hg10 mi
3:30 AM45 °FClear.No wind93%30.30 "Hg10 mi
2:30 AM45 °FClear.No wind93%30.30 "Hg10 mi
1:30 AM46 °FClear.No wind87%30.30 "Hg10 mi
12:30 AM46 °FClear.No wind93%30.33 "Hg10 mi
11:30 PM
Oct 29
48 °FClear.No wind87%30.33 "Hg10 mi
10:30 PM48 °FClear.No wind87%30.33 "Hg10 mi
9:30 PM52 °FPassing clouds.5 mph82%30.33 "HgN/A
Weather by CustomWeather, © 2014

See weather overviewHow to use our weather pages